CW8633 Weather Reports


Display with metric or nautical units.
time (UTC)temp
F
wind
direction
speed
MPH
gust
MPH
rain 1hr
in
rain 24hr
in
rain mn
in
humidity
%
barometer
mb
20260905145621 63 329 2.0 5.0 0.00 0.00 0.00 47 1015.7
20260905144631 62 5 2.0 4.0 0.00 0.00 0.00 49 1015.6
20260905143625 60 5 2.0 4.0 0.00 0.00 0.00 50 1015.6
20260905142636 59 355 2.0 5.0 0.00 0.00 0.00 54 1015.5
20260905141645 57 13 3.0 4.0 0.00 0.00 0.00 55 1015.4
20260905140615 56 22 0.0 5.0 0.00 0.00 0.00 56 1015.4
20260905135615 56 5 3.0 5.0 0.00 0.00 0.00 54 1015.2
20260905134629 57 330 2.0 5.0 0.00 0.00 0.00 54 1015.0
20260905133618 56 56 1.0 3.0 0.00 0.00 0.00 52 1014.8
20260905132628 56 56 1.0 4.0 0.00 0.00 0.00 52 1014.7
20260905131638 56 56 3.0 3.0 0.00 0.00 0.00 53 1014.6
20260905130611 56 56 3.0 5.0 0.00 0.00 0.00 53 1014.5
20260905125652 56 350 3.0 4.0 0.00 0.00 0.00 54 1014.2
20260905124644 56 259 0.0 1.0 0.00 0.00 0.00 54 1014.3
20260905123615 57 259 0.0 1.0 0.00 0.00 0.00 54 1014.1
20260905122627 57 259 1.0 3.0 0.00 0.00 0.00 52 1013.9
20260905121642 58 261 0.0 3.0 0.00 0.00 0.00 53 1013.8
20260905120615 58 260 1.0 2.0 0.00 0.00 0.00 51 1013.7
20260905115615 58 261 1.0 6.0 0.00 0.00 0.00 52 1013.7
20260905114626 58 71 2.0 3.0 0.00 0.00 0.00 51 1013.6
20260905113620 58 71 0.0 4.0 0.00 0.00 0.00 51 1013.6
20260905112629 59 64 0.0 5.0 0.00 0.00 0.00 49 1013.7
20260905111622 61 65 5.0 5.0 0.00 0.00 0.00 47 1013.4
20260905110615 61 65 2.0 3.0 0.00 0.00 0.00 46 1013.4
20260905105622 62 66 1.0 3.0 0.00 0.00 0.00 45 1013.3
20260905104631 62 66 2.0 4.0 0.00 0.00 0.00 46 1013.3
20260905103625 61 66 1.0 4.0 0.00 0.00 0.00 46 1013.3
20260905102616 62 65 1.0 4.0 0.00 0.00 0.00 45 1013.2
20260905101627 62 66 1.0 4.0 0.00 0.00 0.00 45 1013.1
20260905100618 62 5 1.0 4.0 0.00 0.00 0.00 44 1012.9
20260905095623 62 355 2.0 7.0 0.00 0.00 0.00 45 1012.8
20260905094615 61 62 2.0 6.0 0.00 0.00 0.00 46 1012.5
20260905093626 62 70 1.0 4.0 0.00 0.00 0.00 46 1012.5
20260905092618 62 70 0.0 3.0 0.00 0.00 0.00 45 1012.3
20260905091612 62 70 1.0 5.0 0.00 0.00 0.00 46 1012.1
20260905090624 62 70 2.0 5.0 0.00 0.00 0.00 45 1011.9
20260905085645 62 74 2.0 5.0 0.00 0.00 0.00 45 1011.9
20260905084615 64 11 1.0 13.0 0.00 0.00 0.00 43 1011.9
20260905083630 67 294 3.0 6.0 0.00 0.00 0.00 38 1011.8
20260905082622 66 101 1.0 2.0 0.00 0.00 0.00 40 1011.7
20260905081614 66 71 2.0 5.0 0.00 0.00 0.00 39 1011.7
20260905080628 68 279 1.0 7.0 0.00 0.00 0.00 38 1011.7
20260905075651 68 259 3.0 6.0 0.00 0.00 0.00 37 1011.7
20260905074621 68 309 0.0 4.0 0.00 0.00 0.00 37 1011.6
20260905073631 69 242 4.0 8.0 0.00 0.00 0.00 37 1011.5
20260905072621 69 196 2.0 5.0 0.00 0.00 0.00 34 1011.2
20260905071617 68 244 3.0 5.0 0.00 0.00 0.00 36 1011.3
20260905070649 66 242 1.0 4.0 0.00 0.00 0.00 40 1011.1
20260905065628 64 149 0.0 4.0 0.00 0.00 0.00 42 1011.0
20260905064639 63 44 1.0 2.0 0.00 0.00 0.00 44 1010.9
20260905063614 63 44 0.0 3.0 0.00 0.00 0.00 44 1010.8
20260905062623 63 44 3.0 3.0 0.00 0.00 0.00 43 1010.7
20260905061635 64 43 1.0 5.0 0.00 0.00 0.00 43 1010.7
20260905060613 64 355 2.0 4.0 0.00 0.00 0.00 42 1010.6
20260905055615 64 34 0.0 2.0 0.00 0.00 0.00 43 1010.5
20260905054650 64 34 2.0 3.0 0.00 0.00 0.00 42 1010.4
20260905053640 65 34 0.0 3.0 0.00 0.00 0.00 41 1010.3
20260905052629 65 34 2.0 3.0 0.00 0.00 0.00 40 1010.2
20260905051619 66 34 0.0 4.0 0.00 0.00 0.00 39 1010.3
20260905050613 67 29 0.0 3.0 0.00 0.00 0.00 38 1010.3
20260905045615 68 29 1.0 3.0 0.00 0.00 0.00 37 1010.3
20260905044624 68 29 2.0 4.0 0.00 0.00 0.00 35 1010.3
20260905043615 70 11 2.0 5.0 0.00 0.00 0.00 34 1010.2
20260905042627 73 14 2.0 5.0 0.00 0.00 0.00 32 1010.1
20260905041622 76 327 2.0 4.0 0.00 0.00 0.00 29 1010.0
20260905040612 78 163 2.0 6.0 0.00 0.00 0.00 25 1009.9
20260905035651 78 184 2.0 8.0 0.00 0.00 0.00 24 1009.8
20260905034642 77 130 5.0 12.0 0.00 0.00 0.00 24 1009.8
20260905033618 76 171 4.0 8.0 0.00 0.00 0.00 25 1009.8
20260905032627 74 143 2.0 5.0 0.00 0.00 0.00 27 1009.8
20260905031619 74 132 0.0 3.0 0.00 0.00 0.00 27 1009.9
20260905030631 74 131 1.0 3.0 0.00 0.00 0.00 27 1009.9
20260905025617 73 130 2.0 4.0 0.00 0.00 0.00 28 1009.8
20260905024628 73 116 1.0 2.0 0.00 0.00 0.00 29 1009.8
20260905023621 74 116 2.0 4.0 0.00 0.00 0.00 30 1009.7
20260905022630 75 111 0.0 2.0 0.00 0.00 0.00 29 1009.6
20260905021625 76 111 1.0 4.0 0.00 0.00 0.00 28 1009.5
20260905020616 76 111 4.0 7.0 0.00 0.00 0.00 27 1009.5
20260905015639 77 72 3.0 5.0 0.00 0.00 0.00 28 1009.7
20260905014628 78 109 3.0 4.0 0.00 0.00 0.00 28 1009.7
20260905013623 80 142 4.0 4.0 0.00 0.00 0.00 26 1009.7
20260905012614 83 165 2.0 4.0 0.00 0.00 0.00 24 1009.8
20260905011625 84 165 1.0 2.0 0.00 0.00 0.00 21 1009.8
20260905010617 84 165 1.0 2.0 0.00 0.00 0.00 20 1010.0
20260905005622 84 165 2.0 5.0 0.00 0.00 0.00 20 1010.0
20260905004613 84 165 3.0 6.0 0.00 0.00 0.00 20 1010.0
20260905003645 84 164 4.0 6.0 0.00 0.00 0.00 20 1010.1
20260905002652 84 188 3.0 6.0 0.00 0.00 0.00 20 1010.1
20260905001623 85 195 3.0 6.0 0.00 0.00 0.00 19 1010.1
20260905000629 85 242 2.0 7.0 0.00 0.00 0.00 19 1010.2
20260904235626 85 229 3.0 9.0 0.00 0.00 0.00 20 1010.2
20260904234615 84 217 6.0 13.0 0.00 0.00 0.00 20 1010.2
20260904233628 85 224 5.0 12.0 0.00 0.00 0.00 20 1010.2
20260904232617 85 195 6.0 11.0 0.00 0.00 0.00 19 1010.2
20260904231627 85 189 9.0 12.0 0.00 0.00 0.00 19 1010.3
20260904230616 85 237 6.0 12.0 0.00 0.00 0.00 20 1010.3
20260904225618 84 200 9.0 13.0 0.00 0.00 0.00 19 1010.3
20260904224646 84 218 8.0 16.0 0.00 0.00 0.00 20 1010.3
20260904223613 85 223 8.0 14.0 0.00 0.00 0.00 19 1010.5
20260904222623 84 252 10.0 15.0 0.00 0.00 0.00 20 1010.5
20260904221651 84 252 10.0 16.0 0.00 0.00 0.00 20 1010.5
20260904220626 84 234 8.0 15.0 0.00 0.00 0.00 20 1010.6
20260904215623 84 202 8.0 14.0 0.00 0.00 0.00 20 1010.6
20260904214632 84 231 9.0 17.0 0.00 0.00 0.00 21 1010.7
20260904213641 84 202 7.0 20.0 0.00 0.00 0.00 21 1010.7
20260904212613 84 236 9.0 15.0 0.00 0.00 0.00 21 1010.8
20260904211623 83 245 8.0 13.0 0.00 0.00 0.00 21 1010.9
20260904210612 83 229 11.0 19.0 0.00 0.00 0.00 21 1011.0
20260904205633 83 229 6.0 12.0 0.00 0.00 0.00 20 1010.9
20260904204642 83 221 8.0 15.0 0.00 0.00 0.00 20 1011.0
20260904203637 83 215 7.0 16.0 0.00 0.00 0.00 20 1011.0
20260904202626 83 217 9.0 14.0 0.00 0.00 0.00 19 1011.1
20260904201616 82 209 8.0 13.0 0.00 0.00 0.00 20 1011.1
20260904200624 82 260 9.0 15.0 0.00 0.00 0.00 20 1011.3
20260904195649 82 257 6.0 16.0 0.00 0.00 0.00 19 1011.3
20260904194616 81 204 10.0 18.0 0.00 0.00 0.00 20 1011.4
20260904193647 82 223 7.0 14.0 0.00 0.00 0.00 22 1011.4
20260904192635 81 221 7.0 15.0 0.00 0.00 0.00 21 1011.6
20260904191627 81 228 7.0 18.0 0.00 0.00 0.00 20 1011.6
20260904190616 80 236 8.0 20.0 0.00 0.00 0.00 21 1011.7
20260904185616 80 187 9.0 20.0 0.00 0.00 0.00 20 1011.8
20260904184625 80 228 9.0 18.0 0.00 0.00 0.00 22 1012.0
20260904183619 80 247 11.0 16.0 0.00 0.00 0.00 21 1012.1
20260904182629 79 290 10.0 18.0 0.00 0.00 0.00 22 1012.1
20260904181619 80 234 10.0 18.0 0.00 0.00 0.00 20 1012.2
20260904180615 80 228 10.0 18.0 0.00 0.00 0.00 20 1012.2
20260904175616 79 252 12.0 18.0 0.00 0.00 0.00 20 1012.4
20260904174631 79 216 8.0 18.0 0.00 0.00 0.00 21 1012.4
20260904173622 79 253 11.0 20.0 0.00 0.00 0.00 19 1012.4
20260904172613 79 215 12.0 19.0 0.00 0.00 0.00 19 1012.4
20260904171625 79 229 8.0 16.0 0.00 0.00 0.00 21 1012.3
20260904170635 78 207 11.0 19.0 0.00 0.00 0.00 20 1012.3
20260904165613 78 207 10.0 20.0 0.00 0.00 0.00 20 1012.2
20260904164623 78 220 8.0 14.0 0.00 0.00 0.00 21 1012.1
20260904163612 77 222 7.0 13.0 0.00 0.00 0.00 23 1012.2
20260904162625 76 205 7.0 14.0 0.00 0.00 0.00 26 1012.1
20260904161636 74 218 2.0 5.0 0.00 0.00 0.00 27 1012.1
20260904160624 74 186 1.0 4.0 0.00 0.00 0.00 26 1012.2
20260904155626 74 182 2.0 4.0 0.00 0.00 0.00 26 1012.1
20260904154640 73 199 2.0 3.0 0.00 0.00 0.00 26 1012.0
20260904153626 72 257 1.0 2.0 0.00 0.00 0.00 27 1012.0
20260904152617 71 254 2.0 4.0 0.00 0.00 0.00 26 1012.0
20260904151647 70 28 1.0 2.0 0.00 0.00 0.00 28 1012.0
20260904150618 70 61 2.0 4.0 0.00 0.00 0.00 28 1011.9